Location: Niedergestelen
(46.3129°N, 7.7822°E)
Time: 20:56:00
(UTC+00:00)

Cosmos 1943 - Pass Details

Date: 01 December 2020
Orbit: 832 x 851 km, 71.0° (Epoch: 27 January)

Event Time Altitude Azimuth Distance (km) Brightness Sun altitude
Rises 17:50:10 0° 203° (SSW) 3,378 6.8 -21.1°
Reaches altitude 10° 17:52:35 10° 203° (SSW) 2,451 6.0 -21.5°
Maximum altitude 17:58:14 86° 116° (ESE) 852 3.1 -22.4°
Enters shadow 18:00:47 35° 28° (NNE) 1,348 3.9 -22.9°
